Regional Weather Roundup
Issued by NWS

Home | Current Version | Previous Version | Text Only | Print | Product List | Glossary On
Versions: 1 2 3 4 5 6 7 8 9 10 11 12 13 14 15 16 17 18 19 20 21 22 23 24 25 26 27 28 29 30 31 32 33 34 35 36 37 38 39 40 41 42 43 44 45 46 47 48 49 50
000
ASUS46 KLOX 310812
RWRCA

SOUTHERN CALIFORNIA WEATHER ROUNDUP
NATIONAL WEATHER SERVICE OXNARD CALIFORNIA
1200 AM PST SAT JAN 31 2015

NOTE: "FAIR" INDICATES FEW OR NO CLOUDS BELOW 12,000 FEET WITH NO
SIGNIFICANT WEATHER AND/OR OBSTRUCTIONS TO VISIBILITY.

  -  STATIONS PRECEEDED BY AN ASTERISK (*) ARE NOT NWS OR FAA
     STATIONS AND ARE NOT SUBJECT TO NWS AND FAA QUALITY CONTROL.

CAZ041-042-087-310900-
LA AND ORANGE COUNTY COASTAL AREAS


CITY           SKY/WX    TMP DP  RH WIND       PRES   REMARKS
L.A. DOWNTOWN  CLOUDY    59  55  87 SE3       29.87S
L.A. AIRPORT   PTCLDY    58  57  97 SE3       29.87R
LONG BEACH     PTCLDY    59  56  89 S3        29.87S

CITY           SKY/WX    TMP DP  RH WIND       PRES   REMARKS
AVALON           N/A     57 N/A N/A MISG        N/A
FULLERTON      MOCLDY    61  56  83 SE3       29.87S
HAWTHORNE      PTCLDY    60  57  89 CALM      29.87S
*LEO CARRILLO    N/A     52  43  71 NE7         N/A
*LOS ALAMITOS  MOCLDY    59  57  94 S3        29.87F
*REDONDO BEACH   N/A     56  53  89 CALM      29.87S
SANTA ANA      CLOUDY    63  55  77 E6        29.87F
STA MONICA APT MOCLDY    58  53  84 CALM      29.87S
*STA MON PIER    N/A     59  53  81 N2        29.86S
*UCLA            N/A     55  50  82 CALM      29.84S

$$

CAZ547-548-048-310900-
LA COUNTY VALLEYS AND INLAND EMPIRE


CITY           SKY/WX    TMP DP  RH WIND       PRES   REMARKS
BURBANK        MOCLDY    56  52  86 CALM      29.86F
VAN NUYS       MOCLDY    56  50  80 CALM      29.86F

CITY           SKY/WX    TMP DP  RH WIND       PRES   REMARKS
CORONA AIRPORT PTSUNNY   54  54 100 CALM      29.89R
CHINO          MOCLDY    55  51  86 CALM      29.89S
MARCH AFB      CLOUDY    50  50 100 CALM      29.88S
*NORTHRIDGE      N/A     54  48  82 CALM        N/A
ONTARIO        MOCLDY    56  51  84 W3        29.88S
*PASADENA        N/A     59  54  82 CALM        N/A
RIVERSIDE      MOCLDY    55  52  89 CALM      29.88S
SAN BERNARDINO NOT AVBL
*SAN RAFAEL HI   N/A     52  46  81 SW9         N/A
*SAUGUS          N/A     52  47  83 E5          N/A
*WHITEMAN AP   NOT AVBL
*WHITTIER HILL   N/A     56  56 100 SE5         N/A
*WOODLAND HILL   N/A     52  48  87 S2          N/A

$$

CAZ054-055-310900-
LA AND SAN BERNARDINO COUNTY MOUNTAINS


CITY           SKY/WX    TMP DP  RH WIND       PRES   REMARKS
*BIG BEAR AIRP DRIZZLE   32  32 100 CALM      29.93F
*CHILAO          N/A     43  31  62 N6          N/A
MT WILSON NWS    N/A     43  28  56 MISG        N/A
SANDBERG       MOCLDY    46  34  62 NW25      29.92F
*WARM SPRINGS    N/A     48  34  59 NW7G18      N/A

$$

CAZ028-029-059-060-099-310900-
ANTELOPE VALLEY AND SURROUNDING AREAS


CITY           SKY/WX    TMP DP  RH WIND       PRES   REMARKS
LANCASTER      CLOUDY    52  39  61 W13       29.89S
PALMDALE       CLOUDY    53  39  59 W10       29.89S
*POPPY PARK      N/A     52  39  61 W15         N/A

CITY           SKY/WX    TMP DP  RH WIND       PRES   REMARKS
29 PALMS       CLOUDY    52  47  83 W6        29.94S
BARSTOW/DAGGET CLOUDY    52  49  89 CALM      29.88F
BISHOP         CLOUDY    48  29  47 N17       29.99R
CHINA LAKE     MOCLDY    47  45  93 SW5       29.89S
EDWARDS AFB    CLOUDY    50  49  95 N6        29.86S
MOJAVE         CLOUDY    54  39  58 NE5       29.89S
NEEDLES        LGT RAIN  56  48  74 NW6       29.86S
VICTORVILLE    CLOUDY    48  45  87 S5        29.89R

$$

CAZ039-040-310900-
VENTURA AND SANTA BARBARA COUNTY COAST


CITY           SKY/WX    TMP DP  RH WIND       PRES   REMARKS
CAMARILLO      CLEAR     54  51  90 CALM      29.85F FOG
NWS OXNARD       N/A     54  50  87 CALM      29.85S
OXNARD AIRPORT CLEAR     55  51  86 E5        29.85F
*POINT MUGU    CLEAR     56  52  86 NE3       29.86S
SBA APT/GOLETA CLEAR     50  48  93 CALM      29.85S
*SANTA BARBARA   N/A     54  49  81 CALM      29.92F
*VENTURA         N/A     54  51  90 CALM      29.90S

$$

CAZ044-045-310900-
VENTURA COUNTY VALLEYS


CITY           SKY/WX    TMP DP  RH WIND       PRES   REMARKS
*SIMI VALLEY     N/A     51  47  86 CALM      29.83F
*OJAI            N/A     44  42  90 CALM      29.81S
*FILLMORE        N/A     51  47  86 CALM      29.75F

$$

CAZ053-310900-
VENTURA COUNTY MOUNTAINS


CITY           SKY/WX    TMP DP  RH WIND       PRES   REMARKS
*LOCKWOOD VLY    N/A     34  32  93 MISG        N/A
*ROSE VALLEY     N/A     36  37 100 MISG        N/A

$$

CAZ034-035-036-310900-
CENTRAL COAST AND SANTA YNEZ VALLEY


CITY           SKY/WX    TMP DP  RH WIND       PRES   REMARKS
SAN LUIS OBISP PTCLDY    48  46  93 CALM      29.90S
SANTA MARIA    CLOUDY    52  49  89 CALM      29.90S FOG

CITY           SKY/WX    TMP DP  RH WIND       PRES   REMARKS
*CAL POLY SLO    N/A     50  48  93 SE2G13      N/A
*LOMPOC        CLOUDY    54  48  82 CALM      29.90F
*PISMO BEACH     N/A     50  48  92 NE1       29.90F
*SANTA YNEZ    CLOUDY    54  50  87 CALM      29.89F

$$

CAZ037-038-051-310900-
SAN LUIS OBISPO COUNTY INTERIOR AND CUYAMA VALLEY


CITY           SKY/WX    TMP DP  RH WIND       PRES   REMARKS
*CUYAMA          N/A     44  39  82 CALM      29.90S
PASO ROBLES    CLEAR     44  41  89 CALM      29.91S FOG

$$

CAZ032-033-061-310900-
SOUTHERN DESERTS


CITY           SKY/WX    TMP DP  RH WIND       PRES   REMARKS
BLYTHE         PTCLDY    56  53  90 CALM      29.84F
IMPERIAL       MOCLDY    54  48  80 CALM      29.82F
PALM SPRINGS   MOCLDY    58  51  78 CALM      29.86F
THERMAL        MOCLDY    54  49  83 N6        29.83S

$$

ELSEWHERE ACROSS THE WESTERN UNITED STATES AND MEXICO


CITY           SKY/WX    TMP DP  RH WIND       PRES   REMARKS
DENVER, CO     CLOUDY    35  25  66 N9        29.98F WCI  28
GRAND CANYON,  CLOUDY    38  38 100 S5        29.89F WCI  34
HONOLULU, HI   PTCLDY    70  63  78 N3        30.00S
KAHULUI, MAUI  MOCLDY    72  66  83 E5        30.01R
LAKE TAHOE, CA CLEAR     35  25  66 NE6       30.06S WCI  30
LAS VEGAS, NV  LGT RAIN  50  45  83 VRB3      29.84S
MAMMOTH LAKES, CLOUDY    34  27  75 NW10G16   30.06S WCI  26
MEXICO CITY, M PTCLDY    46  37  71 E7        30.30F
PHOENIX, AZ    CLOUDY    56  53  90 CALM      29.82F
PORTLAND, OR   CLEAR     37  35  92 CALM      30.26S
RENO, NV       CLEAR     37  28  70 CALM      30.12S
SALT LAKE CITY CLOUDY    40  36  86 W9        29.96F WCI  34
SAN DIEGO, CA  MOCLDY    61  55  82 CALM      29.89F
SAN FRANCISCO, CLEAR     52  49  89 CALM      29.93S
SAN JOSE, CA   CLEAR     50  47  89 CALM      29.93S
SEATTLE, WA    FOG       40  39  97 CALM      30.26R VSB 1/8
TIJUANA, MEX   MOCLDY    55  50  82 NW3       29.91

$$

STATION/POSITION TIME  TEMP    WIND        PRES    VSBY  WAVE
                       AIR SEA DIR/SP/G                  HT/PER
                 (UTC) (F)     (DEG/KT/KT) (MB)    (MI)  (FT/S)
POINT ARGUELLO B NOT AVBL
WEST SANTA BARBA 0800   58 60  320/ 21/ 25 1010.8F         7/16
POINT CONCEPTION NOT AVBL
EAST SANTA BARBA NOT AVBL
SANTA MONICA BAY 0800   60 62   CALM  /  2 1011.4F         4/12


USA.gov is the U.S. government's official web portal to all federal, state and local government web resources and services.